Total_Precipitation_Accumulation
0.61 0.48 0.67 0.71 0.69 0.81 1.17 1.18 1.10 0.61 0.36 0.30 0.30 0.35 0.32 0.28 0.26 0.26 0.28 0.29 0.29 0.31 0.33 0.31 0.29 0.28 0.26 0.27 0.30 0.34 0.41 0.46 0.49 0.55 0.60 0.64 0.64 0.66 0.68 0.70 0.75 0.78 0.81 0.84
0.67 0.41 0.51 0.60 0.57 0.60 0.69 0.74 0.74 0.54 0.48 0.37 0.33 0.31 0.30 0.27 0.25 0.25 0.25 0.27 0.27 0.25 0.28 0.28 0.30 0.31 0.30 0.29 0.28 0.32 0.36 0.40 0.44 0.48 0.52 0.58 0.64 0.65 0.66 0.70 0.75 0.80 0.87 0.92
0.85 0.48 0.60 0.74 0.64 0.62 0.63 0.62 0.63 0.66 0.57 0.43 0.39 0.35 0.32 0.29 0.25 0.24 0.21 0.20 0.22 0.22 0.24 0.24 0.25 0.28 0.29 0.29 0.28 0.30 0.34 0.36 0.41 0.46 0.51 0.54 0.62 0.69 0.75 0.80 0.87 0.94 0.98 1.07
0.98 0.69 0.87 0.68 0.50 0.51 0.55 0.57 0.59 0.56 0.47 0.41 0.38 0.35 0.34 0.30 0.24 0.21 0.19 0.17 0.15 0.17 0.17 0.17 0.19 0.21 0.26 0.27 0.28 0.29 0.34 0.40 0.44 0.48 0.57 0.64 0.66 0.74 0.84 0.91 0.98 1.05 1.04 1.06
1.13 0.86 0.59 0.39 0.36 0.47 0.55 0.60 0.55 0.43 0.34 0.31 0.31 0.32 0.33 0.28 0.22 0.19 0.18 0.20 0.18 0.16 0.17 0.17 0.18 0.21 0.27 0.31 0.32 0.31 0.34 0.41 0.47 0.50 0.62 0.71 0.71 0.76 0.85 0.91 0.97 1.00 1.00 0.95
1.18 1.01 0.57 0.39 0.24 0.26 0.43 0.66 0.47 0.38 0.35 0.34 0.35 0.42 0.36 0.27 0.23 0.22 0.20 0.20 0.22 0.21 0.19 0.22 0.24 0.26 0.32 0.38 0.44 0.46 0.45 0.49 0.56 0.64 0.74 0.79 0.78 0.77 0.78 0.80 0.82 0.80 0.77 0.72
1.00 0.95 0.51 0.35 0.22 0.23 0.60 0.72 0.37 0.34 0.35 0.36 0.39 0.39 0.32 0.24 0.21 0.23 0.25 0.24 0.24 0.25 0.26 0.30 0.31 0.33 0.36 0.41 0.53 0.59 0.60 0.62 0.65 0.71 0.75 0.76 0.74 0.71 0.68 0.64 0.65 0.63 0.62 0.60
0.75 0.98 0.71 0.37 0.28 0.50 0.64 0.38 0.32 0.33 0.36 0.37 0.36 0.29 0.25 0.25 0.24 0.21 0.22 0.23 0.27 0.30 0.31 0.34 0.40 0.44 0.46 0.49 0.55 0.60 0.62 0.62 0.63 0.64 0.65 0.68 0.67 0.65 0.61 0.59 0.59 0.59 0.59 0.61
0.67 0.75 0.62 0.47 0.49 0.49 0.40 0.36 0.31 0.32 0.33 0.32 0.33 0.32 0.26 0.23 0.22 0.21 0.23 0.24 0.29 0.34 0.37 0.41 0.42 0.45 0.48 0.47 0.48 0.51 0.55 0.57 0.55 0.53 0.53 0.55 0.56 0.57 0.56 0.56 0.56 0.57 0.58 0.61
0.56 0.57 0.48 0.44 0.38 0.34 0.32 0.33 0.30 0.28 0.28 0.29 0.32 0.31 0.28 0.25 0.23 0.20 0.21 0.23 0.26 0.30 0.32 0.34 0.36 0.37 0.39 0.37 0.37 0.39 0.42 0.46 0.48 0.46 0.45 0.46 0.46 0.49 0.51 0.52 0.52 0.52 0.54 0.58
0.51 0.46 0.37 0.36 0.35 0.33 0.31 0.27 0.24 0.22 0.22 0.25 0.26 0.26 0.27 0.28 0.26 0.24 0.23 0.23 0.24 0.26 0.29 0.31 0.31 0.31 0.32 0.32 0.32 0.35 0.36 0.37 0.39 0.42 0.44 0.46 0.47 0.49 0.53 0.53 0.58 0.58 0.53 0.52
0.57 0.44 0.43 0.44 0.36 0.31 0.29 0.28 0.25 0.23 0.22 0.21 0.22 0.24 0.22 0.24 0.24 0.24 0.26 0.25 0.25 0.25 0.28 0.32 0.32 0.29 0.29 0.30 0.31 0.35 0.37 0.37 0.39 0.42 0.43 0.44 0.45 0.49 0.55 0.57 0.61 0.63 0.62 0.58
0.40 0.32 0.30 0.29 0.24 0.23 0.24 0.24 0.22 0.22 0.23 0.24 0.23 0.21 0.21 0.22 0.24 0.27 0.29 0.28 0.28 0.27 0.26 0.28 0.31 0.31 0.30 0.31 0.33 0.36 0.39 0.40 0.40 0.41 0.44 0.44 0.44 0.45 0.48 0.50 0.55 0.57 0.60 0.61
0.19 0.18 0.20 0.18 0.19 0.17 0.17 0.17 0.17 0.17 0.18 0.22 0.24 0.23 0.22 0.22 0.23 0.27 0.31 0.32 0.30 0.27 0.26 0.24 0.26 0.30 0.31 0.31 0.34 0.38 0.40 0.43 0.44 0.43 0.44 0.45 0.44 0.44 0.44 0.46 0.45 0.44 0.49 0.56
0.11 0.14 0.19 0.17 0.13 0.12 0.13 0.13 0.13 0.14 0.15 0.17 0.17 0.20 0.23 0.26 0.28 0.30 0.31 0.30 0.28 0.27 0.26 0.24 0.24 0.26 0.29 0.32 0.34 0.36 0.39 0.40 0.41 0.43 0.45 0.47 0.47 0.45 0.45 0.45 0.45 0.43 0.44 0.51
0.12 0.10 0.11 0.11 0.11 0.11 0.11 0.12 0.15 0.16 0.15 0.17 0.19 0.22 0.26 0.27 0.27 0.26 0.26 0.27 0.29 0.29 0.27 0.25 0.26 0.27 0.27 0.30 0.33 0.35 0.37 0.43 0.43 0.42 0.43 0.45 0.47 0.48 0.47 0.47 0.48 0.46 0.46 0.49
0.19 0.18 0.17 0.17 0.15 0.14 0.13 0.14 0.17 0.18 0.18 0.20 0.24 0.25 0.24 0.24 0.23 0.22 0.23 0.25 0.26 0.28 0.29 0.30 0.30 0.27 0.27 0.29 0.32 0.34 0.35 0.39 0.44 0.43 0.43 0.45 0.46 0.46 0.47 0.48 0.49 0.48 0.46 0.51
0.21 0.22 0.22 0.24 0.22 0.20 0.18 0.17 0.17 0.17 0.18 0.20 0.21 0.22 0.24 0.26 0.28 0.27 0.27 0.25 0.23 0.22 0.23 0.26 0.26 0.25 0.25 0.28 0.33 0.34 0.35 0.36 0.37 0.38 0.41 0.46 0.49 0.47 0.48 0.48 0.48 0.48 0.48 0.53
0.18 0.18 0.18 0.19 0.20 0.20 0.19 0.19 0.18 0.18 0.18 0.18 0.19 0.22 0.24 0.25 0.26 0.26 0.24 0.24 0.25 0.27 0.26 0.24 0.26 0.24 0.24 0.28 0.32 0.32 0.35 0.36 0.37 0.39 0.42 0.49 0.50 0.47 0.48 0.48 0.48 0.48 0.50 0.52
0.14 0.15 0.16 0.18 0.19 0.19 0.20 0.20 0.19 0.19 0.19 0.19 0.20 0.20 0.21 0.23 0.24 0.24 0.23 0.24 0.28 0.32 0.30 0.27 0.25 0.23 0.23 0.26 0.31 0.31 0.34 0.35 0.37 0.40 0.43 0.46 0.47 0.47 0.47 0.49 0.49 0.47 0.47 0.49
0.15 0.16 0.18 0.20 0.20 0.20 0.21 0.21 0.20 0.21 0.20 0.19 0.20 0.21 0.22 0.24 0.25 0.26 0.27 0.26 0.25 0.26 0.26 0.26 0.24 0.23 0.25 0.29 0.34 0.33 0.34 0.36 0.38 0.39 0.41 0.44 0.45 0.46 0.45 0.46 0.48 0.48 0.48 0.48
0.17 0.18 0.20 0.22 0.23 0.23 0.22 0.21 0.21 0.20 0.19 0.18 0.18 0.19 0.19 0.21 0.22 0.23 0.25 0.28 0.28 0.28 0.25 0.22 0.22 0.25 0.31 0.35 0.34 0.33 0.35 0.37 0.39 0.40 0.41 0.43 0.45 0.46 0.46 0.47 0.50 0.50 0.50 0.50
0.18 0.20 0.21 0.22 0.24 0.25 0.23 0.22 0.22 0.21 0.20 0.20 0.22 0.23 0.24 0.25 0.25 0.27 0.28 0.24 0.24 0.26 0.23 0.21 0.24 0.29 0.33 0.33 0.31 0.32 0.35 0.37 0.39 0.40 0.41 0.43 0.45 0.48 0.49 0.48 0.48 0.48 0.50 0.50
0.20 0.20 0.20 0.20 0.20 0.19 0.19 0.19 0.20 0.21 0.21 0.21 0.22 0.24 0.26 0.26 0.24 0.23 0.25 0.26 0.26 0.26 0.24 0.23 0.27 0.29 0.31 0.30 0.30 0.32 0.35 0.37 0.40 0.41 0.43 0.44 0.44 0.46 0.47 0.48 0.48 0.46 0.45 0.45
0.19 0.19 0.18 0.19 0.19 0.20 0.20 0.18 0.17 0.16 0.17 0.17 0.17 0.18 0.21 0.24 0.28 0.26 0.24 0.24 0.25 0.26 0.24 0.25 0.28 0.30 0.30 0.29 0.31 0.34 0.37 0.39 0.43 0.46 0.47 0.47 0.44 0.44 0.44 0.45 0.47 0.46 0.45 0.43
0.17 0.17 0.17 0.18 0.19 0.19 0.19 0.19 0.19 0.17 0.18 0.18 0.16 0.16 0.17 0.19 0.20 0.22 0.23 0.22 0.23 0.24 0.25 0.25 0.28 0.29 0.30 0.30 0.33 0.36 0.38 0.41 0.42 0.43 0.42 0.43 0.44 0.44 0.44 0.43 0.43 0.44 0.43 0.42
0.15 0.15 0.15 0.15 0.13 0.14 0.17 0.19 0.21 0.21 0.21 0.23 0.22 0.19 0.19 0.19 0.20 0.20 0.21 0.21 0.22 0.22 0.23 0.24 0.25 0.27 0.28 0.30 0.33 0.34 0.35 0.37 0.39 0.40 0.41 0.43 0.45 0.45 0.44 0.44 0.44 0.43 0.42 0.42